Regional Weather Roundup
Issued by NWS Northern Indiana

Home | Current Version | Previous Version | Text Only | Print | Product List | Glossary On
Versions: 1 2 3 4 5 6 7 8 9 10 11 12 13 14 15 16 17 18 19 20 21 22 23 24 25 26 27 28 29 30 31 32 33 34 35 36 37 38 39 40 41 42 43 44 45 46 47 48 49 50
000
ASUS43 KIWX 281010
RWRIWX

KIWX WEATHER ROUNDUP
NATIONAL WEATHER SERVICE NORTHERN INDIANA
600 AM EDT THU MAY 28 2015

NOTE: "FAIR" INDICATES FEW OR NO CLOUDS BELOW 12,000 FEET WITH NO
SIGNIFICANT WEATHER AND/OR OBSTRUCTIONS TO VISIBILITY.

* THESE STATIONS ARE NOT UNDER NWS QUALITY CONTROL. THEY ALSO MAY NOT
  REPORT WEATHER SUCH AS PRECIPITATION OR FOG.

INZ001>027-281100-
NORTHERN INDIANA

CITY           SKY/WX    TMP DP  RH WIND       PRES   REMARKS
GARY*          PTCLDY    54  54 100 SE5       30.16F
VALPARAISO     CLEAR     52  51  97 NE5       30.18S
MICHIGAN CITY* CLEAR     50  50 100 CALM      30.19R FOG
LAPORTE*       CLEAR     53  53 100 CALM      30.19S
KNOX*          CLEAR     50  50 100 CALM      30.18R
SOUTH BEND     CLEAR     54  51  90 CALM      30.20R
GOSHEN         FOG       51  50  96 CALM      30.20S VSB 1/2
MONTICELLO*    CLEAR     55  54  99 CALM      30.19R
LOGANSPORT*    CLEAR     52  50  93 S3        30.20S
ROCHESTER*     CLEAR     55  55 100 E3        30.19S FOG
WARSAW*        PTCLDY    50  50 100 CALM      30.20S FOG
ANGOLA*        CLOUDY    52  50  93 CALM      30.21R VSB 1/4
FORT WAYNE     PTCLDY    54  53  97 N6        30.19F
HUNTINGTON*    FOG       51  51  97 CALM      30.19S VSB 1
PERU/GRISSOM   FOG       55  54  94 CALM      30.18R VSB 3/4
MARION*        CLEAR     56  54  93 NE5       30.19S

$$
INZ028>050-281100-
CENTRAL INDIANA

CITY           SKY/WX    TMP DP  RH WIND       PRES   REMARKS
LAFAYETTE      CLEAR     52  51  97 N5        30.18S FOG
KOKOMO*        CLEAR     55  52  88 NE5       30.19S
MUNCIE*        CLEAR     57  54  89 N5        30.19R
INDIANAPOLIS   PTCLDY    61  55  81 NE6       30.17R

$$
MIZ043>046-050>051-056>058-064>065-071>073-077>080-281100-
SOUTHWEST LOWER MICHIGAN

CITY           SKY/WX    TMP DP  RH WIND       PRES   REMARKS
BATTLE CREEK   CLEAR     54  52  93 S6        30.21R
BENTON HARBOR  CLEAR     50  50 100 CALM      30.18R
COLDWATER*     FOG       49  49  99 CALM      30.21R VSB 1/4
HILLSDALE*     FOG       51  51 100 CALM      30.21R VSB 1/4
HOLLAND        CLEAR     54  52  93 CALM      30.18R
GRAND RAPIDS   PTCLDY    52  51  97 NE6       30.19R
KALAMAZOO      CLEAR     54  52  93 S3        30.21R
STURGIS*       FOG       54  54 100 CALM      30.20S VSB 3/4
THREE RIVERS*  FAIR      54  54  99 CALM      30.21R FOG

$$
OHZ001>008-015>018-024>025-281100-
NORTHWEST OHIO

CITY           SKY/WX    TMP DP  RH WIND       PRES   REMARKS
WAUSEON*       FAIR      55  55 100 CALM      30.20R
DEFIANCE       CLEAR     57  55  93 N3        30.20R
FINDLAY        CLEAR     60  57  89 N3        30.18R
TOLEDO EXPRESS CLEAR     55  53  93 CALM      30.19R
TOLEDO METCALF CLEAR     60  56  86 N3        30.19R
LIMA           PTCLDY    60  58  92 N6        30.19R

$$
AND FOR LAKE MICHIGAN COASTAL AND OPEN LAKE BUOY OBSERVATIONS

STATION/POSITION TEMP    WIND        PRES    VSBY  WAVE
                 AIR SEA DIR/SP/G                  HT/PER
                 (F)     (DEG/KT/KT) (MB)    (MI)  (FT/S)
CALUMET HARBOR    60      CALM  /  2   N/A
MICHIGAN CITY     57     120/  8/  9   N/A
BURNS HARBOR      59     170/  4/  6 1022.0S
SAINT JOSEPH      58     100/  2/  4 1022.0S
SOUTH LAKE BUOY   44 38  200/  8/  8 1021.9S         0
4 MI NW BRIDGMAN  57 56  140/  4/  6   N/A           0
MICHIGAN CITY     55 53  150/  2/  4   N/A           0

$$
&&


USA.gov is the U.S. government's official web portal to all federal, state and local government web resources and services.